www.pogodaiklimat.ru

Погода и климат >> Архив погоды >> Италия >> Капо Фраска


ПОГОДА на Капо Фраска

  • Прогноз погоды на Капо Фраска
  • Монитор погоды на Капо Фраска

АРХИВ ПОГОДЫ на Капо Фраска

Время (UTC), дата Ветер
(напр.,м/с)
 
Видим.   Явления Облачность Т
(С)
Тd
(С)
f
(%)
Тe
(С)
Тes
(С)
Комфортность P
(гПа)
Po
(гПа)
Тmin
(С)
Tmax
(С)
R
(мм)
R24
(мм)
S
(см)
06 18.03 С 7 20 км ясно +10.8 +9.4 91 +7 +7 1016.3 1004.8 +10.4
09 18.03 С 7 20 км ясно +13.0 +8.9 76 +10 +13 1017.7 1006.2
12 18.03 С 8 20 км ясно +14.2 +10.8 80 +12 +14 1018.6 1007.2
15 18.03 С 7 20 км 3/0 1200 м
[]
+12.2 +9.6 84 +9 +10 1018.1 1006.6
18 18.03 СЗ 7 20 км 4/4 1200 м
[Cu hum]
+10.0 +9.1 94 +6 +6 1018.4 1006.8 +14.4
06 19.03 СЗ 2 10 км 4/4 540 м
[Cu Sc Ac trans]
+9.4 +7.8 90 +8 +8 1017.2 1005.6 +9.4
09 19.03 СВ 2 10 км 5/1 750 м
[Cu med, cong Ci sp]
+12.4 +9.8 84 +12 +19 1018.0 1006.5
12 19.03 СЗ 5 20 км 1/1 750 м
[Cu med, cong Ci fib]
+14.0 +11.7 86 +12 +19 1018.1 1006.7
15 19.03 СЗ 6 20 км 9/5 750 м
[Cb cap Ac trans Cs]
+14.2 +12.1 87 +12 +13 1017.4 1006.0
18 19.03 СВ 6 10 км 10/9 540 м
[Cb cap Ac As]
+10.8 +9.1 89 +7 +7 1018.9 1007.3 +15.0
06 20.03 В 4 20 км 6/4 750 м
[Cu med, cong Ac trans Ci fib]
+7.8 +6.6 92 +5 +5 1020.6 1009.0 +6.2 0.2
09 20.03 СВ 6 20 км 5/1 600 м
[Cu med, cong Ac trans Ci fib]
+12.2 +8.7 79 +10 +12 1021.4 1009.9
12 20.03 СВ 4 20 км 8/4 750 м
[Cu med, cong Ci fib]
+15.6 +9.9 69 +15 +20 1021.2 1009.8
15 20.03 СВ 6 20 км 9/5 750 м
[Cu med, cong Ac trans Ci fib]
+15.0 +10.4 74 +13 +14 1019.7 1008.3
18 20.03 СВ 7 20 км 9/3 750 м
[Cu med, cong Ac lent Ci fib]
+11.8 +11.2 96 +9 +9 1020.8 1009.3 +15.8
06 21.03 В 6 20 км 9/1 900 м
[Cu med, cong Ac As Ci sp]
+10.4 +8.2 86 +7 +7 1020.1 1008.6 +10.2
09 21.03 В 4 20 км 9/1 900 м
[Cu med, cong Ac As Ci sp]
+12.4 +10.0 85 +10 +13 1021.7 1010.2
12 21.03 СВ 5 20 км 9/4 900 м
[Cu Sc Ac As Cs]
+17.6 +11.6 68 +17 +20 1021.2 1009.9
15 21.03 СВ 5 20 км 10/5 900 м
[Cu Sc Ac trans Cs]
+16.2 +12.7 80 +15 +16 1020.1 1008.8
18 21.03 СВ 5 20 км 9/4 900 м
[Cu Sc Ac As Cs]
+14.0 +11.5 85 +12 +12 1020.4 1009.0 +18.2
06 22.03 СВ 4 20 км 9/5 700 м
[Cu Sc Ac trans]
+11.8 +11.5 98 +10 +10 1022.4 1010.8 +11.6
09 22.03 В 3 20 км 9/6 900 м
[Cu Sc Ac trans]
+13.8 +13.0 95 +13 +14 1023.3 1011.8
12 22.03 СЗ 1 20 км 9/4 900 м
[Cu med, cong Ac trans]
+15.8 +13.1 84 +16 +21 1023.4 1012.0
15 22.03 штиль 0 20 км 9/5 900 м
[Cu med, cong Ac trans]
+16.0 +14.0 88 +16 +18 1022.7 1011.3
18 22.03 Ю 4 20 км 9/4 900 м
[Cu med, cong Ac trans Ci fib]
+15.0 +13.4 90 +14 +14 1022.7 1011.3 +17.0
06 23.03 ЮВ 4 10 км 1/0
[Ci fib]
+7.6 +7.6 100 +4 +4 1023.0 1011.3 +7.6
09 23.03 С 2 18 км 1/0
[Ci fib]
+16.0 +11.6 75 +16 +25 1023.2 1011.8
12 23.03 З 4 20 км 1/1 750 м
[Cu hum Ci fib]
+17.2 +13.1 77 +17 +25 1022.7 1011.4
15 23.03 З 4 20 км 3/1 750 м
[Cu hum Ci fib]
+15.6 +15.3 98 +15 +18 1022.3 1010.9
18 23.03 ЮЗ 3 10 км 8/0 2000 м
[Ac As Ci fib]
+13.2 +13.2 100 +12 +12 1022.2 1010.7 +20.4
06 24.03 штиль 0 2000 м местами туман поземный 3/3 30 м
[St]
+8.2 +7.4 95 +7 +8 1023.3 1011.6 +7.4
09 24.03 З 3 4000 м дымка {туман} 1/1 90 м
[St]
+13.6 +12.5 93 +13 +20 1023.9 1012.4
12 24.03 З 3 10 км {туман} 1/0 750 м
[]
+15.6 +14.5 93 +15 +26 опасность
простуды
1023.7 1012.3
15 24.03 СЗ 4 10 км 1/0 750 м
[Ci fib]
+15.4 +14.1 92 +14 +18 1022.5 1011.1
18 24.03 З 3 20 км 5/0
[Ci fib]
+13.0 +12.4 96 +11 +11 1022.2 1010.7 +16.4

 

Местоположение метеостанции Капо Фраска (Италия): широта 39.75 долгота 8.47 высота над уровнем моря 89 м.

В архиве по умолчанию представлена погода на Капо Фраска за последнюю неделю. Архивные данные за месяц целиком и за предыдущие месяцы, начиная с января 2011 года, Вы можете получить, выбрав интересующий диапазон дат из раскрывающегося списка и нажав кнопку "Ввод!".


*Определитесь, кто Вы:
робот инопланетянин человек

Внимание! Время в таблицах - всемирное. Для получения местного времени необходимо прибавить поправку, которая равна 1 ч.

Смотрите также архив погоды в соседних городах и на ближайших метеорологических станциях:

Погода в Дечимоманну (Италия) (62 км)
Погода на Капо Кацция (Италия) (95 км)
Погода в Альгеро (Италия) (99 км)
Погода на Капо Беллависто (Италия) (109 км)
Погода на Капо Карбонара (Италия) (116 км)
Погода в Ольвии (Италия) (156 км)
Погода на Мысе Пертюзато (Франция) (190 км)
Погода в Фигари (Франция) (202 км)
Погода в Ла Парате (Франция) (242 км)
Погода в Аяччо (Франция) (243 км)

Пояснения к столбцам:

Ветер - указаны скорость ветра в м/с - средняя за 10 мин, порывы в срок и между сроками (в фигурных скобках) и направление, откуда дует ветер: С - северный, СВ - северо-восточный, В - восточный, ЮВ - юго-восточный, Ю - южный, ЮЗ - юго-западный, З - западный, СЗ - северо-западный.
Видимость - горизонтальная дальность видимости в метрах или километрах. При видимости от 1 до 10 км при отсутствии осадков обычно наблюдается дымка, при ухудшении видимости до 1 км и менее - туман. В сухую погоду видимость может ухудшаться дымом, пылью или мглою.
Явления - указаны атмосферные явления, наблюдавшиеся в срок или в последний час перед сроком; фигурными скобками обозначены явления, наблюдавшиеся между сроками (за 1-3 часа до срока); квадратными скобками обозначены град или гололедные отложения с указанием их диаметра в мм.
Облачность - указаны через наклонную черту общая и нижняя облачность в баллах и высота нижней границы облаков в метрах; квадратными скобками обозначены формы облаков: Ci - перистые, Cs - перисто-слоистые, Cc - перисто-кучевые, Ac - высококучевые, As - высокослоистые, Sc - слоисто-кучевые, Ns - слоисто-дождевые, Cu - кучевые, Cb - кучево-дождевые. Подробнее классификацию облаков см. в Атласе облаков (PDF).
T - Температура воздуха - температура, измеренная на высоте 2 м над землей.
Td - Температура точки росы - температура, при понижении до которой содержащийся в воздухе водяной пар достигнет насыщения.
f - Относительная влажность воздуха - влажноcть воздуха, измеренная на высоте 2 м над землей.
Te - Эффективная температура - температура, которую ощущает одетый по сезону человек в тени. Характеристика душности погоды. При расчете учитывается влияние влажности воздуха и скорости ветра на теплоощущения человека.
Tes - Эффективная температура на солнце - температура, которую ощущает человек, с поправкой на солнечный нагрев. Характеристика знойности погоды. Зависит от высоты солнца над горизонтом, облачности и скорости ветра. Ночью, в пасмурную погоду, а также при ветре 12 м/с и более поправка равна нулю.
P - Атмосферное давление - приведенное к уровню моря атмосферное давление.
Po - Атмосферное давление - измеренное на уровне метеостанции атмосферное давление.
Tmin - Минимальная температура - минимум температуры воздуха на высоте 2 м над землей.
Tmax - Максимальная температура - максимум температуры воздуха на высоте 2 м над землей.
R - Количество осадков - Количество выпавших осадков за период времени, мм. При наведении курсора мыши на число - период времени, за который выпало указанное количество осадков.
R24 - Количество осадков - Количество выпавших осадков за 24 часа, мм.
S - Снежный покров - Высота снежного покрова, см. При наведении курсора мыши на число - состояние снежного покрова и степень покрытия местности в баллах.